| time (UTC) | temp F | wind direction | speed MPH | gust MPH | rain 1hr in | rain 24hr in | rain mn in | humidity % | barometer mb |
| 20260905195904 | 83 | 151 | 2.0 | 5.0 | 0.00 | 3.30 | 0.63 | 91 | 1011.7 |
| 20260905195405 | 83 | 152 | 1.0 | 3.0 | 0.00 | 3.32 | 0.63 | 93 | 1011.6 |
| 20260905194404 | 83 | 157 | 1.0 | 3.0 | 0.00 | 3.36 | 0.63 | 94 | 1011.5 |
| 20260905193905 | 83 | 159 | 1.0 | 3.0 | 0.00 | 3.37 | 0.63 | 94 | 1011.6 |
| 20260905193403 | 83 | 165 | 0.0 | 2.0 | 0.00 | 3.37 | 0.63 | 95 | 1011.7 |
| 20260905192904 | 82 | 165 | 0.0 | 2.0 | 0.00 | 3.37 | 0.63 | 95 | 1011.8 |
| 20260905192404 | 82 | 165 | 1.0 | 2.0 | 0.00 | 3.37 | 0.63 | 95 | 1012.0 |
| 20260905191404 | 82 | 165 | 1.0 | 2.0 | 0.00 | 3.37 | 0.63 | 95 | 1012.4 |
| 20260905181904 | 81 | 167 | 0.0 | 3.0 | 1.17 | 3.37 | 0.63 | 95 | 1013.2 |
| 20260905181404 | 80 | 167 | 0.0 | 3.0 | 1.31 | 3.37 | 0.63 | 95 | 1013.3 |
| 20260905180904 | 79 | 167 | 1.0 | 3.0 | 0.76 | 3.37 | 0.00 | 94 | 1013.4 |
| 20260905180404 | 79 | 167 | 0.0 | 3.0 | 0.07 | 3.37 | 0.63 | 94 | 1013.3 |
| 20260905175904 | 79 | 167 | 0.0 | 3.0 | 1.03 | 3.37 | 0.63 | 94 | 1013.3 |
| 20260905173904 | 78 | 138 | 3.0 | 6.0 | 0.65 | 3.37 | 0.65 | 92 | 1013.6 |
| 20260905173405 | 78 | 143 | 3.0 | 15.0 | 1.16 | 3.37 | 1.16 | 90 | 1013.8 |
| 20260905172904 | 78 | 126 | 2.0 | 15.0 | 1.06 | 3.37 | 1.06 | 90 | 1014.0 |
| 20260905172404 | 78 | 151 | 13.0 | 15.0 | 0.90 | 3.36 | 0.90 | 89 | 1014.1 |
| 20260905171905 | 79 | 142 | 14.0 | 15.0 | 0.82 | 3.36 | 0.82 | 88 | 1014.1 |
| 20260905171404 | 79 | 132 | 13.0 | 15.0 | 0.68 | 3.36 | 0.68 | 87 | 1014.2 |
| 20260905170404 | 82 | 170 | 6.0 | 12.0 | 0.56 | 3.36 | 0.56 | 85 | 1014.2 |
| 20260905165903 | 84 | 151 | 5.0 | 12.0 | 4.63 | 3.36 | 4.63 | 83 | 1014.3 |
| 20260905164904 | 88 | 166 | 5.0 | 9.0 | 0.33 | 3.32 | 0.33 | 77 | 1014.1 |
| 20260905164404 | 89 | 154 | 2.0 | 12.0 | 0.00 | 3.31 | 0.00 | 73 | 1014.0 |
| 20260905163404 | 90 | 66 | 0.0 | 0.0 | 0.00 | 3.31 | 0.00 | 71 | 1013.9 |
| 20260905162404 | 91 | 66 | 0.0 | 2.0 | 0.00 | 3.31 | 0.00 | 70 | 1013.9 |
| 20260905161904 | 91 | 66 | 0.0 | 2.0 | 0.00 | 3.31 | 0.00 | 69 | 1013.9 |
| 20260905161404 | 91 | 0 | 0.0 | 0.0 | 0.00 | 3.31 | 0.00 | 68 | 1013.8 |
| 20260905160904 | 91 | 0 | 0.0 | 0.0 | 0.00 | 3.31 | 0.00 | 69 | 1013.8 |
| 20260905155904 | 91 | 0 | 0.0 | 0.0 | 0.00 | 3.31 | 0.00 | 70 | 1013.7 |
| 20260905155405 | 91 | 0 | 0.0 | 0.0 | 0.00 | 3.31 | 0.00 | 69 | 1013.7 |
| 20260905154904 | 91 | 0 | 0.0 | 0.0 | 0.00 | 3.31 | 0.00 | 71 | 1013.7 |
| 20260905154404 | 91 | 0 | 0.0 | 0.0 | 0.00 | 3.31 | 0.00 | 71 | 1013.7 |
| 20260905153904 | 91 | 0 | 0.0 | 0.0 | 0.00 | 3.31 | 0.00 | 72 | 1013.7 |
| 20260905153404 | 91 | 0 | 0.0 | 0.0 | 0.00 | 3.31 | 0.00 | 73 | 1013.7 |
| 20260905152904 | 91 | 0 | 0.0 | 0.0 | 0.00 | 3.31 | 0.00 | 72 | 1013.7 |
| 20260905151905 | 89 | 0 | 0.0 | 0.0 | 0.00 | 3.31 | 0.00 | 76 | 1013.7 |
| 20260905151404 | 90 | 0 | 0.0 | 0.0 | 0.00 | 3.31 | 0.00 | 76 | 1013.7 |
| 20260905150905 | 90 | 0 | 0.0 | 0.0 | 0.00 | 3.31 | 0.00 | 76 | 1013.8 |
| 20260905150405 | 90 | 0 | 0.0 | 0.0 | 0.00 | 3.31 | 0.00 | 75 | 1013.7 |
| 20260905145904 | 90 | 0 | 0.0 | 0.0 | 0.00 | 3.31 | 0.00 | 76 | 1013.7 |
| 20260905145403 | 90 | 0 | 0.0 | 0.0 | 0.00 | 3.31 | 0.00 | 76 | 1013.7 |
| 20260905144904 | 90 | 0 | 0.0 | 0.0 | 0.00 | 3.31 | 0.00 | 76 | 1013.7 |
| 20260905144404 | 89 | 0 | 0.0 | 0.0 | 0.00 | 3.31 | 0.00 | 77 | 1013.7 |
| 20260905143904 | 89 | 0 | 0.0 | 0.0 | 0.00 | 3.31 | 0.00 | 80 | 1013.8 |
| 20260905143404 | 88 | 0 | 0.0 | 0.0 | 0.00 | 3.31 | 0.00 | 81 | 1013.8 |
| 20260905142904 | 87 | 0 | 0.0 | 0.0 | 0.00 | 3.31 | 0.00 | 81 | 1013.7 |
| 20260905142404 | 87 | 0 | 0.0 | 0.0 | 0.00 | 3.31 | 0.00 | 81 | 1013.7 |
| 20260905141904 | 86 | 0 | 0.0 | 0.0 | 0.00 | 3.31 | 0.00 | 84 | 1013.7 |
| 20260905141404 | 85 | 0 | 0.0 | 0.0 | 0.00 | 3.31 | 0.00 | 87 | 1013.7 |
| 20260905140905 | 84 | 0 | 0.0 | 0.0 | 0.00 | 3.31 | 0.00 | 89 | 1013.6 |
| 20260905140404 | 83 | 0 | 0.0 | 0.0 | 0.00 | 3.31 | 0.00 | 92 | 1013.6 |
| 20260905135904 | 83 | 0 | 0.0 | 0.0 | 0.00 | 3.31 | 0.00 | 94 | 1013.5 |
| 20260905135404 | 82 | 0 | 0.0 | 0.0 | 0.00 | 3.31 | 0.00 | 95 | 1013.5 |
| 20260905134904 | 81 | 0 | 0.0 | 0.0 | 0.00 | 3.31 | 0.00 | 95 | 1013.5 |
| 20260905133904 | 80 | 0 | 0.0 | 0.0 | 0.00 | 3.31 | 0.00 | 95 | 1013.4 |
| 20260905133404 | 80 | 0 | 0.0 | 0.0 | 0.00 | 3.31 | 0.00 | 95 | 1013.5 |
| 20260905132905 | 79 | 0 | 0.0 | 0.0 | 0.00 | 3.31 | 0.00 | 95 | 1013.6 |
| 20260905132405 | 79 | 0 | 0.0 | 0.0 | 0.00 | 3.31 | 0.00 | 95 | 1013.6 |
| 20260905131904 | 79 | 0 | 0.0 | 0.0 | 0.00 | 3.31 | 0.00 | 95 | 1013.4 |
| 20260905130904 | 78 | 0 | 0.0 | 0.0 | 0.00 | 3.31 | 0.00 | 95 | 1013.3 |
| 20260905130404 | 78 | 0 | 0.0 | 0.0 | 0.00 | 3.31 | 0.00 | 94 | 1013.3 |
| 20260905125904 | 78 | 0 | 0.0 | 0.0 | 0.00 | 3.31 | 0.00 | 94 | 1013.3 |
| 20260905125405 | 77 | 0 | 0.0 | 0.0 | 0.00 | 3.31 | 0.00 | 94 | 1013.2 |
| 20260905124904 | 77 | 0 | 0.0 | 0.0 | 0.00 | 3.31 | 0.00 | 94 | 1013.1 |
| 20260905123905 | 77 | 0 | 0.0 | 0.0 | 0.00 | 3.31 | 0.00 | 94 | 1013.0 |
| 20260905123404 | 77 | 0 | 0.0 | 0.0 | 0.00 | 3.31 | 0.00 | 94 | 1013.0 |
| 20260905122405 | 77 | 0 | 0.0 | 0.0 | 0.00 | 3.31 | 0.00 | 93 | 1012.9 |
| 20260905121904 | 77 | 0 | 0.0 | 0.0 | 0.00 | 3.31 | 0.00 | 93 | 1012.9 |
| 20260905120903 | 77 | 0 | 0.0 | 0.0 | 0.00 | 3.31 | 0.00 | 93 | 1012.7 |
| 20260905120404 | 77 | 0 | 0.0 | 0.0 | 0.00 | 3.31 | 0.00 | 93 | 1012.6 |
| 20260905115904 | 77 | 0 | 0.0 | 0.0 | 0.00 | 3.31 | 0.00 | 93 | 1012.5 |
| 20260905115404 | 77 | 0 | 0.0 | 0.0 | 0.00 | 3.31 | 0.00 | 93 | 1012.5 |
| 20260905114904 | 77 | 0 | 0.0 | 0.0 | 0.00 | 3.31 | 0.00 | 93 | 1012.4 |
| 20260905114404 | 77 | 0 | 0.0 | 0.0 | 0.00 | 3.31 | 0.00 | 93 | 1012.4 |
| 20260905113905 | 77 | 0 | 0.0 | 0.0 | 0.00 | 3.31 | 0.00 | 93 | 1012.4 |
| 20260905113403 | 77 | 0 | 0.0 | 0.0 | 0.00 | 3.31 | 0.00 | 93 | 1012.3 |
| 20260905112904 | 77 | 0 | 0.0 | 0.0 | 0.00 | 3.31 | 0.00 | 93 | 1012.2 |
| 20260905112405 | 77 | 0 | 0.0 | 0.0 | 0.00 | 3.31 | 0.00 | 93 | 1012.2 |
| 20260905110904 | 77 | 0 | 0.0 | 0.0 | 0.00 | 3.31 | 0.00 | 93 | 1012.1 |
| 20260905110405 | 77 | 0 | 0.0 | 0.0 | 0.00 | 3.31 | 0.00 | 93 | 1012.0 |
| 20260905105903 | 78 | 0 | 0.0 | 0.0 | 0.00 | 3.31 | 0.00 | 93 | 1012.0 |
| 20260905105404 | 77 | 0 | 0.0 | 0.0 | 0.00 | 3.31 | 0.00 | 93 | 1012.0 |
| 20260905104905 | 78 | 0 | 0.0 | 0.0 | 0.00 | 3.31 | 0.00 | 93 | 1012.0 |
| 20260905104404 | 78 | 0 | 0.0 | 0.0 | 0.00 | 3.31 | 0.00 | 93 | 1012.0 |
| 20260905103904 | 78 | 0 | 0.0 | 0.0 | 0.00 | 3.31 | 0.00 | 93 | 1012.0 |
| 20260905103405 | 78 | 0 | 0.0 | 0.0 | 0.00 | 3.31 | 0.00 | 93 | 1011.9 |
| 20260905102904 | 78 | 0 | 0.0 | 0.0 | 0.00 | 3.31 | 0.00 | 93 | 1011.9 |
| 20260905102403 | 78 | 0 | 0.0 | 0.0 | 0.00 | 3.31 | 0.00 | 93 | 1011.9 |
| 20260905101904 | 78 | 0 | 0.0 | 0.0 | 0.00 | 3.31 | 0.00 | 92 | 1011.9 |
| 20260905101404 | 78 | 0 | 0.0 | 0.0 | 0.00 | 3.31 | 0.00 | 92 | 1011.9 |
| 20260905100904 | 78 | 0 | 0.0 | 0.0 | 0.00 | 3.31 | 0.00 | 92 | 1012.0 |
| 20260905100403 | 78 | 0 | 0.0 | 0.0 | 0.00 | 3.31 | 0.00 | 92 | 1012.1 |
| 20260905095904 | 78 | 0 | 0.0 | 0.0 | 0.00 | 3.31 | 0.00 | 92 | 1012.0 |
| 20260905094904 | 78 | 0 | 0.0 | 0.0 | 0.00 | 3.31 | 0.00 | 92 | 1012.0 |
| 20260905094405 | 78 | 0 | 0.0 | 0.0 | 0.00 | 3.31 | 0.00 | 92 | 1012.0 |
| 20260905093904 | 78 | 0 | 0.0 | 0.0 | 0.00 | 3.31 | 0.00 | 92 | 1012.0 |
| 20260905093404 | 78 | 0 | 0.0 | 0.0 | 0.00 | 3.31 | 0.00 | 92 | 1011.9 |
| 20260905092405 | 78 | 0 | 0.0 | 0.0 | 0.00 | 3.31 | 0.00 | 92 | 1011.9 |
| 20260905091904 | 78 | 0 | 0.0 | 0.0 | 0.00 | 3.31 | 0.00 | 92 | 1011.9 |
| 20260905091404 | 78 | 0 | 0.0 | 0.0 | 0.00 | 3.31 | 0.00 | 92 | 1011.9 |
| 20260905090404 | 78 | 0 | 0.0 | 0.0 | 0.00 | 3.31 | 0.00 | 92 | 1011.8 |
| 20260905085904 | 78 | 0 | 0.0 | 0.0 | 0.00 | 3.31 | 0.00 | 92 | 1011.9 |
| 20260905085404 | 78 | 0 | 0.0 | 0.0 | 0.00 | 3.31 | 0.00 | 92 | 1011.8 |
| 20260905084405 | 79 | 0 | 0.0 | 0.0 | 0.00 | 3.31 | 0.00 | 92 | 1011.8 |
| 20260905083904 | 79 | 0 | 0.0 | 0.0 | 0.00 | 3.31 | 0.00 | 92 | 1011.8 |
| 20260905083403 | 79 | 0 | 0.0 | 0.0 | 0.00 | 3.31 | 0.00 | 91 | 1011.7 |
| 20260905082904 | 79 | 0 | 0.0 | 0.0 | 0.00 | 3.31 | 0.00 | 91 | 1011.6 |
| 20260905082405 | 79 | 0 | 0.0 | 0.0 | 0.00 | 3.31 | 0.00 | 91 | 1011.6 |
| 20260905081905 | 79 | 0 | 0.0 | 0.0 | 0.00 | 3.31 | 0.00 | 91 | 1011.7 |
| 20260905081404 | 79 | 0 | 0.0 | 0.0 | 0.00 | 3.31 | 0.00 | 91 | 1011.7 |
| 20260905080404 | 79 | 0 | 0.0 | 0.0 | 0.00 | 3.31 | 0.00 | 91 | 1011.7 |
| 20260905075404 | 79 | 0 | 0.0 | 0.0 | 0.00 | 3.31 | 0.00 | 91 | 1011.8 |
| 20260905074905 | 79 | 0 | 0.0 | 0.0 | 0.00 | 3.31 | 0.00 | 91 | 1011.8 |
| 20260905074404 | 79 | 0 | 0.0 | 0.0 | 0.00 | 3.31 | 0.00 | 91 | 1011.8 |
| 20260905073904 | 79 | 0 | 0.0 | 0.0 | 0.00 | 3.31 | 0.00 | 91 | 1011.8 |
| 20260905073404 | 79 | 0 | 0.0 | 0.0 | 0.00 | 3.31 | 0.00 | 91 | 1011.8 |
| 20260905072404 | 79 | 0 | 0.0 | 0.0 | 0.00 | 3.31 | 0.00 | 91 | 1012.0 |
| 20260905071904 | 80 | 0 | 0.0 | 0.0 | 0.00 | 3.31 | 0.00 | 90 | 1012.1 |
| 20260905070904 | 80 | 0 | 0.0 | 0.0 | 0.00 | 3.31 | 0.00 | 90 | 1012.0 |
| 20260905070404 | 80 | 0 | 0.0 | 0.0 | 0.00 | 3.31 | 0.00 | 90 | 1012.1 |
| 20260905065904 | 80 | 0 | 0.0 | 0.0 | 0.00 | 3.31 | 0.00 | 90 | 1012.2 |
| 20260905065403 | 80 | 0 | 0.0 | 0.0 | 0.00 | 3.31 | 0.00 | 90 | 1012.3 |
| 20260905064904 | 80 | 0 | 0.0 | 0.0 | 0.00 | 3.31 | 0.00 | 90 | 1012.4 |
| 20260905064404 | 80 | 0 | 0.0 | 0.0 | 0.00 | 3.31 | 0.00 | 90 | 1012.3 |
| 20260905063904 | 80 | 0 | 0.0 | 0.0 | 0.00 | 3.31 | 0.00 | 90 | 1012.4 |
| 20260905063405 | 80 | 0 | 0.0 | 0.0 | 0.00 | 3.31 | 0.00 | 90 | 1012.4 |
| 20260905062904 | 80 | 0 | 0.0 | 0.0 | 0.00 | 3.31 | 0.00 | 90 | 1012.4 |
| 20260905062404 | 80 | 0 | 0.0 | 0.0 | 0.00 | 3.31 | 0.00 | 90 | 1012.4 |
| 20260905061405 | 80 | 0 | 0.0 | 0.0 | 0.00 | 3.31 | 0.00 | 90 | 1012.4 |
| 20260905060404 | 80 | 0 | 0.0 | 0.0 | 0.00 | 3.31 | 0.00 | 89 | 1012.4 |
| 20260905055903 | 81 | 0 | 0.0 | 0.0 | 0.60 | 3.31 | 0.00 | 89 | 1012.4 |
| 20260905055403 | 81 | 0 | 0.0 | 0.0 | 3.75 | 3.31 | 0.00 | 89 | 1012.5 |
| 20260905054904 | 81 | 0 | 0.0 | 0.0 | 7.05 | 3.31 | 0.00 | 89 | 1012.6 |
| 20260905054404 | 81 | 0 | 0.0 | 0.0 | 9.60 | 3.31 | 0.00 | 89 | 1012.6 |
| 20260905053904 | 81 | 0 | 0.0 | 0.0 | 9.99 | 3.31 | 0.00 | 89 | 1012.6 |
| 20260905053404 | 81 | 0 | 0.0 | 0.0 | 9.99 | 3.31 | 0.00 | 89 | 1012.5 |
| 20260905052904 | 81 | 0 | 0.0 | 0.0 | 9.99 | 3.31 | 0.00 | 89 | 1012.6 |
| 20260905052403 | 81 | 0 | 0.0 | 0.0 | 9.99 | 3.31 | 0.00 | 88 | 1012.6 |
| 20260905051904 | 81 | 0 | 0.0 | 0.0 | 9.99 | 3.31 | 0.00 | 88 | 1012.5 |
| 20260905051404 | 81 | 0 | 0.0 | 0.0 | 9.99 | 3.31 | 0.00 | 88 | 1012.5 |
| 20260905050903 | 81 | 0 | 0.0 | 0.0 | 9.99 | 3.31 | 0.00 | 88 | 1012.5 |
| 20260905050404 | 81 | 0 | 0.0 | 0.0 | 9.99 | 3.31 | 0.00 | 88 | 1012.5 |
| 20260905045904 | 81 | 0 | 0.0 | 0.0 | 9.99 | 3.31 | 3.33 | 88 | 1012.5 |
| 20260905044905 | 82 | 0 | 0.0 | 0.0 | 9.99 | 3.25 | 3.26 | 88 | 1012.6 |
| 20260905044404 | 82 | 0 | 0.0 | 0.0 | 9.99 | 3.22 | 3.24 | 88 | 1012.6 |
| 20260905043404 | 82 | 0 | 0.0 | 0.0 | 9.99 | 3.18 | 3.19 | 87 | 1012.6 |
| 20260905042904 | 82 | 0 | 0.0 | 0.0 | 9.99 | 3.14 | 3.16 | 87 | 1012.7 |
| 20260905041905 | 82 | 0 | 0.0 | 0.0 | 9.99 | 3.09 | 3.11 | 87 | 1012.8 |
| 20260905041405 | 82 | 0 | 0.0 | 0.0 | 9.99 | 3.07 | 3.08 | 86 | 1012.8 |
| 20260905040904 | 82 | 0 | 0.0 | 0.0 | 9.99 | 3.04 | 3.05 | 86 | 1012.8 |
| 20260905040405 | 82 | 0 | 0.0 | 0.0 | 9.99 | 3.01 | 3.03 | 86 | 1012.8 |
| 20260905035404 | 82 | 0 | 0.0 | 0.0 | 9.99 | 2.96 | 2.97 | 86 | 1012.9 |
| 20260905034905 | 83 | 0 | 0.0 | 0.0 | 9.99 | 2.92 | 2.93 | 86 | 1012.9 |
| 20260905034405 | 83 | 0 | 0.0 | 0.0 | 9.99 | 2.90 | 2.91 | 86 | 1012.9 |
| 20260905033905 | 83 | 0 | 0.0 | 0.0 | 9.99 | 2.86 | 2.88 | 86 | 1013.0 |
| 20260905032904 | 83 | 0 | 0.0 | 0.0 | 9.99 | 2.81 | 2.82 | 85 | 1012.9 |
| 20260905032405 | 83 | 0 | 0.0 | 0.0 | 9.99 | 2.79 | 2.80 | 85 | 1012.9 |
| 20260905031904 | 83 | 0 | 0.0 | 0.0 | 9.99 | 2.76 | 2.78 | 84 | 1012.9 |
| 20260905031405 | 83 | 0 | 0.0 | 0.0 | 9.99 | 2.74 | 2.75 | 84 | 1012.9 |
| 20260905030404 | 83 | 0 | 0.0 | 0.0 | 9.99 | 2.67 | 2.69 | 83 | 1013.0 |
| 20260905025405 | 83 | 0 | 0.0 | 0.0 | 9.99 | 2.61 | 2.62 | 83 | 1012.9 |
| 20260905024905 | 84 | 0 | 0.0 | 0.0 | 9.99 | 2.58 | 2.59 | 83 | 1012.8 |
| 20260905023904 | 84 | 0 | 0.0 | 0.0 | 9.99 | 2.52 | 2.53 | 82 | 1012.7 |
| 20260905023404 | 84 | 0 | 0.0 | 0.0 | 9.99 | 2.50 | 2.51 | 82 | 1012.7 |
| 20260905022905 | 84 | 0 | 0.0 | 0.0 | 9.99 | 2.46 | 2.48 | 81 | 1012.7 |
| 20260905022404 | 84 | 0 | 0.0 | 0.0 | 9.99 | 2.44 | 2.45 | 81 | 1012.7 |
| 20260905021405 | 84 | 0 | 0.0 | 0.0 | 9.99 | 2.39 | 2.40 | 80 | 1012.6 |
| 20260905020404 | 85 | 0 | 0.0 | 0.0 | 9.99 | 2.33 | 2.35 | 80 | 1012.3 |
| 20260905015904 | 85 | 0 | 0.0 | 0.0 | 9.99 | 2.31 | 2.32 | 80 | 1012.3 |
| 20260905015405 | 85 | 0 | 0.0 | 0.0 | 9.99 | 2.29 | 2.30 | 79 | 1012.3 |
| 20260905014905 | 85 | 0 | 0.0 | 0.0 | 9.99 | 2.26 | 2.27 | 79 | 1012.3 |
| 20260905014404 | 85 | 0 | 0.0 | 0.0 | 9.99 | 2.23 | 2.24 | 79 | 1012.3 |
| 20260905013904 | 85 | 0 | 0.0 | 0.0 | 9.99 | 2.19 | 2.21 | 78 | 1012.3 |
| 20260905013405 | 85 | 0 | 0.0 | 0.0 | 9.99 | 2.17 | 2.18 | 78 | 1012.2 |
| 20260905012905 | 85 | 0 | 0.0 | 0.0 | 9.99 | 2.14 | 2.15 | 78 | 1012.1 |
| 20260905012404 | 86 | 0 | 0.0 | 0.0 | 9.99 | 2.10 | 2.12 | 78 | 1012.1 |
| 20260905011904 | 86 | 0 | 0.0 | 0.0 | 9.99 | 2.08 | 2.09 | 78 | 1012.0 |
| 20260905011404 | 86 | 0 | 0.0 | 0.0 | 9.99 | 2.06 | 2.07 | 77 | 1012.0 |
| 20260905010905 | 86 | 0 | 0.0 | 0.0 | 9.99 | 2.04 | 2.05 | 77 | 1012.0 |
| 20260905010405 | 86 | 0 | 0.0 | 0.0 | 9.99 | 2.01 | 2.02 | 77 | 1012.0 |
| 20260905005905 | 86 | 0 | 0.0 | 0.0 | 9.99 | 1.98 | 1.99 | 76 | 1011.8 |
| 20260905005405 | 87 | 0 | 0.0 | 0.0 | 9.99 | 1.95 | 1.96 | 76 | 1011.8 |
| 20260905004905 | 87 | 0 | 0.0 | 0.0 | 9.99 | 1.92 | 1.94 | 76 | 1011.9 |
| 20260905004404 | 87 | 0 | 0.0 | 0.0 | 9.99 | 1.90 | 1.91 | 75 | 1011.8 |
| 20260905003905 | 87 | 0 | 0.0 | 0.0 | 9.99 | 1.86 | 1.88 | 75 | 1011.7 |
| 20260905003404 | 87 | 0 | 0.0 | 0.0 | 9.99 | 1.84 | 1.85 | 75 | 1011.6 |
| 20260905001404 | 88 | 0 | 0.0 | 0.0 | 9.99 | 1.73 | 1.74 | 74 | 1011.7 |
| 20260905000904 | 88 | 0 | 0.0 | 0.0 | 9.99 | 1.70 | 1.72 | 74 | 1011.7 |
| 20260905000404 | 89 | 0 | 0.0 | 0.0 | 9.99 | 1.68 | 1.69 | 73 | 1011.7 |
| 20260904235905 | 89 | 0 | 0.0 | 0.0 | 9.99 | 1.66 | 1.67 | 73 | 1011.6 |
| 20260904235404 | 89 | 0 | 0.0 | 0.0 | 9.99 | 1.63 | 1.64 | 72 | 1011.6 |
| 20260904234904 | 89 | 0 | 0.0 | 0.0 | 9.99 | 1.60 | 1.62 | 72 | 1011.6 |
| 20260904234404 | 90 | 0 | 0.0 | 0.0 | 9.99 | 1.58 | 1.59 | 71 | 1011.5 |
| 20260904233904 | 90 | 0 | 0.0 | 0.0 | 9.99 | 1.55 | 1.57 | 70 | 1011.6 |
| 20260904232904 | 90 | 0 | 0.0 | 0.0 | 9.99 | 1.50 | 1.51 | 70 | 1011.6 |
| 20260904232404 | 91 | 0 | 0.0 | 0.0 | 9.99 | 1.47 | 1.48 | 71 | 1011.6 |
| 20260904231904 | 91 | 0 | 0.0 | 0.0 | 9.99 | 1.44 | 1.45 | 71 | 1011.6 |
| 20260904231404 | 91 | 0 | 0.0 | 0.0 | 9.99 | 1.41 | 1.42 | 70 | 1011.6 |
| 20260904230404 | 92 | 0 | 0.0 | 0.0 | 9.99 | 1.36 | 1.38 | 69 | 1011.7 |
| 20260904224905 | 92 | 0 | 0.0 | 0.0 | 9.99 | 1.27 | 1.29 | 69 | 1011.7 |
| 20260904223404 | 93 | 0 | 0.0 | 0.0 | 9.99 | 1.20 | 1.21 | 68 | 1011.8 |
| 20260904222904 | 92 | 0 | 0.0 | 0.0 | 9.99 | 1.17 | 1.19 | 69 | 1011.7 |
| 20260904222404 | 92 | 0 | 0.0 | 0.0 | 9.99 | 1.15 | 1.16 | 69 | 1011.7 |
| 20260904221905 | 92 | 0 | 0.0 | 0.0 | 9.99 | 1.12 | 1.14 | 69 | 1011.6 |
| 20260904221404 | 92 | 0 | 0.0 | 0.0 | 9.99 | 1.11 | 1.12 | 69 | 1011.5 |
| 20260904220904 | 92 | 0 | 0.0 | 0.0 | 9.99 | 1.08 | 1.09 | 70 | 1011.6 |
| 20260904220404 | 92 | 0 | 0.0 | 0.0 | 9.99 | 1.05 | 1.06 | 70 | 1011.6 |
| 20260904215904 | 91 | 0 | 0.0 | 0.0 | 9.99 | 1.02 | 1.03 | 70 | 1011.6 |
| 20260904215405 | 92 | 0 | 0.0 | 0.0 | 9.99 | 9.99 | 1.01 | 69 | 1011.5 |
| 20260904214905 | 92 | 0 | 0.0 | 0.0 | 9.99 | 9.61 | 9.75 | 67 | 1011.6 |
| 20260904214405 | 93 | 0 | 0.0 | 0.0 | 9.99 | 9.31 | 9.45 | 65 | 1011.7 |
| 20260904213905 | 94 | 0 | 0.0 | 0.0 | 9.99 | 9.01 | 9.15 | 64 | 1011.8 |
| 20260904213404 | 95 | 0 | 0.0 | 0.0 | 9.99 | 8.74 | 8.88 | 62 | 1011.9 |
| 20260904212904 | 96 | 0 | 0.0 | 0.0 | 9.99 | 8.47 | 8.61 | 61 | 1012.0 |
| 20260904212404 | 96 | 0 | 0.0 | 0.0 | 9.99 | 8.23 | 8.37 | 62 | 1012.1 |
| 20260904211904 | 97 | 0 | 0.0 | 0.0 | 9.99 | 7.93 | 8.07 | 59 | 1012.0 |
| 20260904211405 | 97 | 0 | 0.0 | 0.0 | 9.99 | 7.69 | 7.83 | 58 | 1011.9 |
| 20260904210904 | 97 | 0 | 0.0 | 0.0 | 9.99 | 7.39 | 7.53 | 59 | 1012.0 |
| 20260904210404 | 98 | 0 | 0.0 | 0.0 | 9.99 | 7.15 | 7.29 | 60 | 1012.1 |
| 20260904205404 | 97 | 0 | 0.0 | 0.0 | 9.99 | 6.78 | 6.91 | 59 | 1012.3 |
| 20260904204405 | 96 | 0 | 0.0 | 0.0 | 9.99 | 6.16 | 6.30 | 61 | 1012.3 |
| 20260904203905 | 95 | 0 | 0.0 | 0.0 | 9.99 | 5.86 | 6.00 | 63 | 1012.3 |
| 20260904203405 | 95 | 0 | 0.0 | 0.0 | 9.99 | 5.59 | 5.73 | 64 | 1012.4 |
| 20260904202904 | 94 | 0 | 0.0 | 0.0 | 9.99 | 5.31 | 5.44 | 66 | 1012.5 |
| 20260904202404 | 93 | 0 | 0.0 | 0.0 | 9.99 | 5.04 | 5.17 | 65 | 1012.6 |
| 20260904201904 | 92 | 0 | 0.0 | 0.0 | 9.99 | 4.71 | 4.84 | 70 | 1012.7 |
| 20260904201404 | 91 | 0 | 0.0 | 0.0 | 9.99 | 4.42 | 4.56 | 73 | 1012.8 |
| 20260904200905 | 90 | 0 | 0.0 | 0.0 | 9.99 | 4.15 | 4.29 | 78 | 1012.9 |
| 20260904200404 | 88 | 0 | 0.0 | 0.0 | 9.99 | 3.82 | 3.96 | 80 | 1012.9 |